SCP
0 0 0 0 0 0 0 0 0 0 0 0 0 0 0 0 0 0 0 0 0 0 0 0 0 0 0 0 0 0 0 0 0 0 0 0 0 0 0 0 0 0 0
0 0 0 0 0 0 0 0 0 0 0 0 0 0 0 0 0 0 0 0 0 0 0 0 0 0 0 0 0 0 0 0 0 0 0 0 0 0 0 0 0 0 0
0 0 0 0 0 0 0 0 0 0 0 0 0 0 0 0 0 0 0 0 0 0 0 0 0 0 0 0 0 0 0 0 0 0 0 0 0 0 0 0 0 0 0
0 0 0 0 0 0 0 0 0 0 0 0 0 0 0 0 0 0 0 0 0 0 0 0 0 0 0 0 0 0 0 0 0 0 0 0 0 0 0 0 0 0 0
0 0 0 0 0 0 0 0 0 0 0 0 0 0 0 0 0 0 0 0 0 0 0 0 0 0 0 0 0 0 0 0 0 0 0 0 0 0 0 0 0 0 0
0 0 0 0 0 0 0 0 0 0 0 0 0 0 0 0 0 0 0 0 0 0 0 0 0 0 0 0 0 0 0 0 0 0 0 0 0 0 0 0 0 0 0
0 0 0 0 0 0 0 0 0 0 0 0 0 0 0 0 0 0 0 0 0 0 0 0 0 0 0 0 0 0 0 0 0 0 0 0 0 0 0 0 0 0 0
0 0 0 0 0 0 0 0 0 0 0 0 0 0 0 0 0 0 0 0 0 0 0 0 0 0 0 0 0 0 0 0 0 0 0 0 0 0 0 0 0 0 0
0 0 0 0 0 0 0 1 1 0 0 0 0 0 0 0 0 0 0 0 0 0 0 0 0 0 0 0 0 0 0 0 0 0 0 0 0 0 0 0 0 0 0
0 0 0 1 1 0 0 1 1 1 0 0 0 0 0 0 0 0 0 0 0 0 0 0 0 1 1 1 1 0 0 0 0 1 1 0 0 0 0 0 0 0 0
0 0 1 1 1 0 0 0 0 0 1 1 0 0 1 0 0 0 1 1 1 1 1 1 1 1 1 1 1 1 0 0 0 1 1 1 1 1 0 0 0 0 0
1 1 1 1 1 1 0 0 0 0 1 1 1 1 1 1 0 0 1 1 1 1 1 1 1 1 1 1 1 1 1 0 0 0 0 0 1 1 1 1 0 0 0
1 1 1 1 1 1 1 1 1 1 1 1 1 1 1 1 1 1 1 1 1 1 1 1 1 1 1 1 1 1 1 1 0 0 0 0 1 1 1 1 1 0 0
1 1 1 1 1 1 1 1 1 1 1 1 1 1 1 1 1 1 1 1 1 1 1 1 1 1 1 1 1 1 1 1 0 1 1 1 1 1 1 1 1 1 1
1 1 1 1 1 1 1 1 1 1 1 1 1 1 1 1 1 1 1 1 1 1 1 1 1 1 1 1 1 1 1 0 0 1 1 1 1 1 0 0 0 1 1
1 1 1 1 1 1 1 1 1 1 1 1 1 1 1 1 1 1 1 1 1 1 1 1 1 1 1 0 0 0 0 0 0 0 1 0 0 0 0 0 0 0 0
1 1 1 1 1 1 1 1 1 1 1 1 1 1 1 1 1 1 1 1 1 1 1 1 1 1 0 0 0 0 0 0 0 0 0 0 0 0 0 0 0 0 0
1 1 1 1 1 1 1 1 1 1 1 1 1 1 1 1 1 1 1 1 1 1 1 1 1 1 0 0 0 0 0 0 0 0 0 0 0 0 0 0 0 0 0
1 1 1 1 1 1 1 1 1 1 1 1 1 1 1 1 1 1 1 1 1 1 1 1 1 0 0 0 0 0 0 0 0 0 0 0 0 0 0 0 0 0 0
1 1 1 1 1 1 1 1 1 1 1 1 1 1 1 1 1 1 1 1 1 1 1 1 1 0 0 0 0 0 0 0 0 0 0 0 0 0 0 0 0 0 0
1 1 1 1 1 1 1 1 1 1 1 1 1 1 1 1 1 1 1 1 1 1 1 1 0 0 0 0 0 0 0 0 0 0 0 0 0 0 0 0 0 0 0
1 1 1 1 1 1 1 1 1 1 1 1 1 1 1 1 1 1 1 1 1 1 1 1 0 0 0 0 0 0 0 0 0 0 0 0 0 0 0 0 0 0 0
1 1 1 1 1 1 1 1 1 1 1 1 1 1 1 1 1 1 1 1 1 1 1 1 1 1 0 0 0 0 0 0 0 0 0 0 0 0 0 0 0 0 0
1 1 1 1 1 1 1 1 1 1 1 1 1 1 1 1 1 1 1 1 1 1 1 1 1 1 1 0 0 0 0 0 0 0 0 0 0 0 0 0 0 0 0
1 1 1 1 1 1 1 1 1 1 1 1 1 1 1 1 1 1 1 1 0 0 0 0 0 0 0 0 0 0 0 0 0 0 0 0 0 0 0 0 0 0 0
1 1 1 1 1 1 1 1 1 1 1 1 1 1 1 1 1 1 1 0 0 0 0 0 0 0 0 0 0 0 0 0 0 0 0 0 0 0 0 0 0 0 0
Wind_Speed
9 9 8 7 7 6 6 6 5 5 4 3 3 3 2 2 2 2 2 3 3 3 3 3 2 3 2 2 2 1 2 1 1 1 1 1 2 2 2 2 2 2 3
9 10 9 9 8 7 7 6 6 5 4 3 2 2 2 2 2 2 1 2 2 3 3 4 3 2 2 2 1 1 2 0 0 1 1 1 2 3 3 3 3 3 2
10 10 10 9 9 8 8 6 6 5 4 4 3 3 2 2 2 2 1 2 2 2 3 2 3 2 2 1 1 2 2 1 1 1 2 2 1 1 2 3 3 3 3
9 9 10 10 9 9 7 7 6 6 5 5 4 4 3 2 2 1 1 1 1 2 2 2 2 2 1 1 2 1 2 2 2 1 1 2 2 3 2 2 2 3 3
10 10 10 10 9 8 7 7 7 6 5 5 5 4 4 2 2 1 1 1 1 1 1 2 1 2 2 1 2 2 2 2 3 2 2 2 3 4 4 3 3 3 3
10 10 9 9 9 8 8 8 7 7 6 6 5 5 4 3 2 2 1 2 1 1 1 1 1 2 2 2 2 2 3 3 3 3 3 3 3 3 3 4 4 4 3
8 9 10 9 9 9 9 8 8 7 7 6 6 6 5 4 3 3 2 2 2 1 1 2 1 2 2 2 3 3 3 3 3 4 3 3 4 3 4 4 5 5 4
8 8 9 9 8 9 9 8 8 8 7 6 5 4 5 4 3 3 3 2 2 2 1 2 2 2 3 3 3 3 3 2 3 4 3 3 3 3 4 4 4 5 4
7 8 8 8 8 8 8 8 8 8 7 6 6 5 4 4 3 3 3 3 2 2 1 2 2 2 2 2 3 2 3 3 3 3 3 3 3 3 3 4 5 5 6
6 6 6 7 7 8 8 7 8 7 7 7 6 5 5 5 4 3 2 2 2 2 2 2 2 2 2 2 2 2 2 3 3 3 4 4 4 3 4 4 4 5 6
5 5 5 6 7 7 7 7 7 7 6 6 6 5 5 5 4 4 3 3 2 2 2 3 3 2 2 2 2 3 3 4 4 4 4 5 5 4 4 4 4 5 5
4 5 5 5 6 7 7 7 7 7 7 6 6 6 5 4 4 4 3 3 3 3 3 3 3 3 2 3 3 4 3 4 5 5 5 5 4 5 5 4 5 5 5
3 4 5 5 5 6 6 6 6 6 6 6 6 5 5 5 4 4 3 3 3 3 3 3 3 3 3 3 4 4 4 5 5 5 5 5 5 6 4 5 5 5 5
3 3 4 4 4 5 6 6 6 5 6 6 5 5 5 4 4 4 4 3 3 4 4 4 4 4 4 4 4 4 4 5 5 5 6 6 6 6 6 6 6 6 6
4 4 4 4 4 5 6 5 5 5 5 5 5 5 4 4 4 4 4 4 4 4 4 4 4 4 4 3 4 5 5 5 5 5 6 6 5 5 5 6 5 6 6
4 4 4 4 4 5 6 5 5 5 5 5 5 4 4 4 3 3 3 3 4 4 4 4 4 4 3 1 3 6 5 5 5 5 6 6 6 5 7 7 7 7 7
4 5 4 4 4 4 5 6 5 5 5 5 5 4 4 4 3 3 3 3 4 3 4 4 4 4 2 1 4 6 7 6 5 5 5 6 4 5 6 7 8 8 8
4 4 4 4 3 3 4 5 5 5 5 5 5 4 4 4 4 3 3 3 3 3 3 4 4 4 2 1 4 6 7 6 5 5 5 6 5 4 5 7 7 7 6
2 3 3 3 3 3 3 4 5 5 5 5 5 4 5 5 4 3 3 3 3 3 3 3 3 4 3 1 3 5 5 5 5 5 5 5 5 3 5 7 7 6 6
1 2 2 2 2 2 3 5 5 5 5 4 5 4 5 4 4 4 3 3 3 3 4 3 4 4 4 1 2 5 5 5 5 4 4 3 4 4 4 6 6 6 6
1 2 2 2 2 2 3 4 4 4 4 4 4 4 5 5 4 4 4 3 3 3 4 4 4 4 3 3 3 4 5 5 5 5 4 2 1 3 5 7 6 5 6
1 2 2 2 2 3 3 4 4 4 3 3 4 4 4 4 4 4 4 4 4 4 4 4 4 3 3 2 2 3 5 7 6 5 4 2 1 4 6 5 4 5 7
1 2 2 2 2 2 3 3 3 3 3 3 3 3 4 4 4 4 5 5 5 4 4 3 4 3 2 3 4 4 5 6 5 4 3 3 2 4 4 4 4 5 4
1 2 2 2 2 2 2 2 2 3 3 3 3 3 4 5 4 4 5 4 4 4 4 4 4 4 3 2 1 2 3 4 4 3 1 3 3 4 3 2 3 3 3
1 2 2 2 2 2 2 2 2 3 3 3 3 3 4 3 4 4 3 4 3 3 4 4 4 4 3 1 1 3 3 3 2 3 3 3 2 2 2 2 2 2 2
1 1 2 2 2 1 2 1 2 3 3 3 3 3 3 3 3 3 3 2 3 3 4 5 5 3 2 1 1 2 3 3 3 3 3 3 3 2 2 2 2 3 3
Wind_Direction
176 172 175 175 170 167 166 172 177 170 179 185 200 197 201 214 223 230 227 250 260 249 248 267 229 241 244 247 236 232 230 238 285 288 288 255 229 228 223 239 253 247 242
179 178 180 181 181 178 181 181 183 181 190 185 199 211 223 224 225 251 233 258 260 251 233 236 244 231 237 228 230 225 261 262 124 282 274 241 209 208 230 236 234 252 255
188 183 185 187 186 186 189 189 185 187 196 196 200 194 194 220 210 224 225 265 274 265 270 244 254 249 244 222 233 236 244 246 217 233 280 273 271 276 217 232 240 246 262
190 187 186 191 194 191 188 189 187 191 195 198 207 208 212 221 227 238 221 242 269 267 261 250 241 249 260 238 240 221 241 239 241 207 237 279 305 277 279 236 235 245 252
191 187 188 188 195 191 190 186 186 192 196 201 203 214 224 230 229 218 197 250 226 259 262 250 251 246 257 256 254 237 248 244 250 253 237 236 238 248 264 277 273 256 255
192 190 186 182 190 193 192 186 184 193 196 200 204 212 223 231 240 241 243 233 230 244 264 265 278 274 275 257 242 237 228 247 252 258 251 245 252 263 266 270 274 277 269
188 187 185 183 187 191 193 191 186 192 196 201 207 210 215 217 224 241 228 254 269 270 307 297 285 286 274 254 247 229 236 237 240 246 252 253 254 264 270 275 283 286 283
186 185 184 184 186 189 192 194 191 192 194 198 202 209 213 219 216 226 255 246 267 287 312 283 273 272 272 262 249 246 233 230 239 244 255 260 259 259 256 267 278 279 276
183 185 182 183 186 189 192 193 192 190 191 191 191 199 207 222 227 227 238 246 249 258 258 269 267 265 258 259 262 263 259 253 250 249 238 250 257 256 262 260 264 269 279
173 175 178 183 186 188 189 190 189 188 189 189 194 191 199 206 214 229 232 250 252 264 266 266 265 260 253 248 255 256 257 261 262 265 266 264 265 265 256 257 263 262 266
170 174 179 183 185 183 182 182 185 187 190 194 196 203 203 203 208 217 222 227 242 244 249 256 259 257 257 253 252 260 257 259 261 261 258 260 271 275 267 259 261 261 263
171 176 179 177 182 181 177 176 185 189 189 190 195 200 204 207 213 213 217 225 237 245 244 249 250 252 250 252 253 260 260 261 260 261 264 267 263 261 266 267 263 263 259
168 166 171 177 181 179 175 174 183 185 180 180 193 199 208 207 212 216 217 223 231 243 251 249 248 253 256 258 262 263 261 259 262 264 264 267 268 266 268 265 265 267 263
182 171 170 178 181 180 175 178 179 175 177 181 190 197 209 209 212 215 216 220 227 238 244 247 250 252 252 257 266 262 261 260 260 262 266 268 264 263 264 258 256 262 266
194 183 176 174 181 179 176 179 180 180 182 184 190 194 198 199 204 208 213 219 229 235 240 246 249 252 250 261 274 266 260 264 265 265 268 266 268 275 276 279 279 273 268
201 188 178 179 185 184 182 180 185 183 183 186 188 188 194 197 202 207 213 221 231 237 238 244 246 249 260 337 290 281 270 265 264 268 271 268 251 252 253 264 273 275 269
207 196 185 185 187 189 185 182 182 182 179 180 182 187 190 194 204 215 216 225 234 237 241 247 250 253 265 279 276 279 275 269 270 271 273 274 272 258 262 254 248 251 252
206 200 195 182 182 191 187 181 176 181 184 186 190 194 199 202 203 211 221 237 247 249 248 248 253 253 250 236 264 276 265 267 266 265 267 272 281 279 285 276 268 263 257
217 210 205 188 175 179 179 178 181 184 191 192 194 199 206 210 210 217 227 237 241 242 245 244 247 253 256 237 264 280 267 265 267 266 268 273 275 299 298 276 272 270 265
217 196 178 163 161 167 184 188 185 189 197 201 201 202 207 211 214 221 231 236 238 240 245 243 245 251 257 220 249 278 269 274 275 265 253 249 282 296 279 271 271 272 279
194 175 165 163 159 175 189 195 188 197 205 209 208 206 206 210 214 222 227 234 234 237 245 247 244 240 250 206 203 257 274 278 275 275 272 276 244 269 266 270 273 282 289
183 181 174 168 170 193 199 196 191 198 200 207 211 213 217 224 210 219 229 231 236 232 234 242 250 238 222 228 206 223 256 286 278 281 290 311 272 259 257 264 279 274 273
204 196 189 187 196 214 215 202 194 196 195 203 213 219 220 228 229 228 229 231 231 245 250 254 259 258 244 197 195 211 230 259 271 290 321 318 271 255 237 219 243 255 265
209 209 204 197 209 223 222 204 199 196 198 207 215 226 229 229 229 239 237 241 242 249 256 262 268 271 256 261 259 247 231 229 246 270 267 242 241 254 275 248 232 258 286
248 240 234 228 227 217 208 206 192 197 209 217 225 235 239 242 245 245 263 261 263 270 270 278 277 280 280 337 348 291 291 299 313 296 271 273 268 264 272 278 284 283 273
274 269 254 240 230 210 202 214 207 209 223 231 240 248 250 244 247 244 242 234 245 224 227 254 272 284 303 347 272 266 278 277 272 270 269 277 279 282 286 284 281 273 276